PulseSat

PulseSat

GSAT0202 (PRN E14)

Last updated on March 25, 2019, 3:11 a.m. UTC

1 40129U 14050B   19082.43994912 -.00000108  00000-0  00000-0 0  9997
2 40129  50.6000  18.4415 1661140  85.5987 293.0624  1.85519181 31451
UTC
Height (km)
Latitude
Longitude
Inclination
Orbital Period

Next 30 passes for location: Hong Kong

Rise time Rise Azimuth (degrees) Set time Set Azimuth (degrees) Duration Max altitude (degrees)

No matching passes for this satellites

PulseSat

PulseSat is the new satellites software and hardware trackering solution by Pulsely.
Satellite Two Line Element Set source: US Air Force Space Command

Download PulseSat for iOS
© 2017 Pulsely Limited